DW7126 Lourinha PT current weather conditions

sailwx.info

Wind from 360 at 13 knots gusting 22

Air temperature 13.3° C
Dewpoint 11.7° C

Last reported at 2016-Feb-08 00:50 UTC.
Time now 2016-Feb-08 02:03 UTC

Location: N 39°14' W 009°18'.
View on Google Maps.

See reports from other nearby stations

  
Tides and Currents Weather Stations Pressure Air Temp Water Temp Dewpoint Dewpoint Depression Visibility Wind Speed Wind Dir Waves Ship Positions
date/time (UTC)wind fromknots sea level pressurealtimeterstation pressurevisibilityair tempwater tempwave heightnotes
2016-Feb-08 00:50 360 13 gusting 22 13.3
2016-Feb-08 00:45 259 18 gusting 22 13.3
2016-Feb-08 00:40 360 14 gusting 22 13.9
2016-Feb-08 00:35 242 10 gusting 14 14.4
2016-Feb-08 00:30 257 10 gusting 15 14.4
2016-Feb-08 00:25 360 10 gusting 15 14.4
2016-Feb-08 00:20 234 10 gusting 17 14.4
2016-Feb-08 00:15 254 12 gusting 17 14.4
2016-Feb-08 00:10 360 11 gusting 15 13.9
2016-Feb-08 00:05 360 9 gusting 17 13.9
2016-Feb-08 00:00 360 13 gusting 17 13.9
2016-Feb-07 23:55 238 10 gusting 16 13.9
2016-Feb-07 23:50 252 11 gusting 16 13.9
2016-Feb-07 23:45 234 8 gusting 12 14.4
2016-Feb-07 23:40 242 6 gusting 13 14.4
2016-Feb-07 23:35 253 7 gusting 13 14.4
2016-Feb-07 23:30 360 8 gusting 13 14.4
2016-Feb-07 23:25 360 9 gusting 13 14.4
2016-Feb-07 23:20 257 9 gusting 13 14.4
2016-Feb-07 23:15 261 10 gusting 13 14.4
2016-Feb-07 23:10 360 7 gusting 11 14.4
2016-Feb-07 23:05 360 8 gusting 14 13.9
2016-Feb-07 23:00 252 11 gusting 14 14.4
2016-Feb-07 22:55 245 8 gusting 15 13.9
2016-Feb-07 22:50 360 12 gusting 15 14.4
2016-Feb-07 22:45 360 10 gusting 15 14.4
2016-Feb-07 22:40 229 9 gusting 14 13.9
2016-Feb-07 22:35 360 10 gusting 14 13.9
2016-Feb-07 22:30 360 10 gusting 15 13.9
2016-Feb-07 22:25 256 10 gusting 15 13.9
2016-Feb-07 22:20 253 11 gusting 14 14.4
2016-Feb-07 22:15 360 9 gusting 14 14.4
2016-Feb-07 22:10 248 10 gusting 15 14.4
2016-Feb-07 22:05 360 9 gusting 15 13.9
2016-Feb-07 22:00 360 8 gusting 12 13.9
2016-Feb-07 21:55 232 7 gusting 12 13.9
2016-Feb-07 21:50 360 8 gusting 12 13.9
2016-Feb-07 21:45 360 8 gusting 12 13.9
2016-Feb-07 21:40 241 8 gusting 13 13.9
2016-Feb-07 21:35 360 8 gusting 13 13.9
2016-Feb-07 21:30 360 6 gusting 12 13.9
2016-Feb-07 21:25 240 7 gusting 13 13.9
2016-Feb-07 21:20 360 8 gusting 13 13.9
2016-Feb-07 21:15 235 9 gusting 12 13.9
2016-Feb-07 21:10 360 7 gusting 12 13.9
2016-Feb-07 21:05 360 6 gusting 12 13.9
2016-Feb-07 21:00 252 7 gusting 10 13.9
2016-Feb-07 20:55 360 6 gusting 10 13.9
2016-Feb-07 20:50 242 6 gusting 8 13.9
2016-Feb-07 20:45 360 5 gusting 9 13.9
2016-Feb-07 20:40 360 6 gusting 10 13.3
2016-Feb-07 20:35 240 6 gusting 10 13.3
2016-Feb-07 20:30 247 6 gusting 9 13.3
2016-Feb-07 20:25 252 6 gusting 9 13.3
2016-Feb-07 20:20 360 8 gusting 10 13.3
2016-Feb-07 20:15 248 6 gusting 13 13.3
2016-Feb-07 20:10 250 10 gusting 13 13.3
2016-Feb-07 20:05 261 11 gusting 13 13.3
2016-Feb-07 20:00 360 8 gusting 12 13.3
2016-Feb-07 19:55 360 8 gusting 13 13.9
2016-Feb-07 19:50 259 8 gusting 13 13.3
2016-Feb-07 19:45 257 6 gusting 11 13.9
2016-Feb-07 19:40 360 7 gusting 13 13.3
2016-Feb-07 19:35 254 7 gusting 13 13.3
2016-Feb-07 19:30 244 7 gusting 12 13.3
2016-Feb-07 19:25 266 5 gusting 10 13.3
2016-Feb-07 19:20 360 8 gusting 10 13.3
2016-Feb-07 19:15 257 5 gusting 8 12.8
2016-Feb-07 19:10 280 5 gusting 7 12.8
2016-Feb-07 19:05 360 5 gusting 6 12.8
2016-Feb-07 19:00 265 4 gusting 7 12.8
2016-Feb-07 18:55 360 5 gusting 7 12.8
2016-Feb-07 18:50 265 5 gusting 7 12.8
2016-Feb-07 18:45 273 5 gusting 7 12.8
2016-Feb-07 18:40 360 5 gusting 7 12.8
2016-Feb-07 18:35 266 4 gusting 8 12.8
2016-Feb-07 18:30 261 4 gusting 8 13.3
2016-Feb-07 18:25 277 3 gusting 8 12.8
2016-Feb-07 18:20 271 5 gusting 8 13.3
2016-Feb-07 18:15 280 4 gusting 10 13.3
2016-Feb-07 18:10 275 6 gusting 10 13.3
2016-Feb-07 18:05 360 3 gusting 9 13.3
2016-Feb-07 18:00 270 6 gusting 10 13.3
2016-Feb-07 17:55 284 6 gusting 11 13.9
2016-Feb-07 17:50 275 6 gusting 12 13.9
2016-Feb-07 17:45 360 7 gusting 15 13.9
2016-Feb-07 17:40 360 9 gusting 16 13.9
2016-Feb-07 17:35 258 12 gusting 16 13.9
2016-Feb-07 17:30 242 7 gusting 12 13.9
2016-Feb-07 17:25 268 7 gusting 13 13.9
2016-Feb-07 17:20 360 10 gusting 15 13.9
2016-Feb-07 17:15 360 10 gusting 15 13.9
2016-Feb-07 17:10 266 10 gusting 13 13.9
2016-Feb-07 17:05 275 5 gusting 10 13.9
2016-Feb-07 17:00 251 6 gusting 12 13.9
2016-Feb-07 16:55 360 8 gusting 12 14.4
2016-Feb-07 16:50 360 6 gusting 12 14.4
2016-Feb-07 16:45 271 8 gusting 13 14.4
2016-Feb-07 16:40 360 7 gusting 13 14.4
2016-Feb-07 16:35 360 6 gusting 12 15.0
2016-Feb-07 16:30 360 8 gusting 12 15.0
2016-Feb-07 16:25 360 6 gusting 13 15.0
2016-Feb-07 16:20 360 8 gusting 13 15.0
2016-Feb-07 16:15 258 7 gusting 13 15.0
2016-Feb-07 16:10 360 6 gusting 12 15.0
2016-Feb-07 16:05 259 9 gusting 13 15.0
2016-Feb-07 16:00 360 8 gusting 14 15.0
2016-Feb-07 15:55 360 8 gusting 14 15.0
2016-Feb-07 15:50 360 8 gusting 13 15.0
2016-Feb-07 15:45 241 9 gusting 13 15.0
2016-Feb-07 15:40 256 6 gusting 15 15.0
2016-Feb-07 15:35 292 9 gusting 14 15.0
2016-Feb-07 15:30 360 9 gusting 13 15.0
2016-Feb-07 15:25 360 4 gusting 13 15.0
2016-Feb-07 15:20 360 8 gusting 14 15.0
2016-Feb-07 15:15 360 8 gusting 15 15.0
2016-Feb-07 15:10 279 7 gusting 15 15.0
2016-Feb-07 15:05 360 9 gusting 16 15.0
2016-Feb-07 15:00 360 7 gusting 16 15.0
2016-Feb-07 14:55 296 6 gusting 13 15.0
2016-Feb-07 14:50 360 8 gusting 15 15.0
2016-Feb-07 14:45 286 10 gusting 15 15.0
2016-Feb-07 14:40 259 10 gusting 13 15.0
2016-Feb-07 14:35 360 9 gusting 13 15.0
2016-Feb-07 14:30 263 5 gusting 11 15.0
2016-Feb-07 14:25 360 6 gusting 11 14.4
2016-Feb-07 14:20 285 6 gusting 10 14.4
2016-Feb-07 14:15 269 6 gusting 10 14.4
2016-Feb-07 14:10 360 5 gusting 12 15.0
2016-Feb-07 14:05 360 8 gusting 12 15.0
2016-Feb-07 14:00 360 7 gusting 12 15.0
2016-Feb-07 13:55 360 6 gusting 13 15.0
2016-Feb-07 13:50 360 9 gusting 13 15.0
2016-Feb-07 13:45 360 6 gusting 12 15.0
2016-Feb-07 13:40 360 6 gusting 13 15.0
2016-Feb-07 13:35 360 8 gusting 13 15.0
2016-Feb-07 13:30 360 7 gusting 13 15.0
2016-Feb-07 13:25 360 6 gusting 13 15.6
2016-Feb-07 13:20 360 8 gusting 14 15.0
2016-Feb-07 13:15 246 7 gusting 13 15.0
2016-Feb-07 13:10 360 9 gusting 15 15.0
2016-Feb-07 13:05 360 11 gusting 15 14.4
2016-Feb-07 13:00 360 11 gusting 15 15.0
2016-Feb-07 12:55 360 8 gusting 16 15.0
2016-Feb-07 12:50 360 10 gusting 17 15.0
2016-Feb-07 12:45 360 10 gusting 17 15.0
2016-Feb-07 12:40 360 9 gusting 14 15.0
2016-Feb-07 12:35 271 8 gusting 13 15.0
2016-Feb-07 12:30 360 8 gusting 13 15.0
2016-Feb-07 12:25 360 8 gusting 13 15.6
2016-Feb-07 12:20 360 8 gusting 13 15.0
2016-Feb-07 12:15 360 7 gusting 13 15.0
2016-Feb-07 12:10 360 9 gusting 14 14.4
2016-Feb-07 12:05 360 9 gusting 15 14.4
2016-Feb-07 12:00 360 12 gusting 15 14.4
2016-Feb-07 11:55 254 10 gusting 14 15.0
2016-Feb-07 11:50 360 6 gusting 9 14.4
2016-Feb-07 11:45 256 6 gusting 10 15.0
2016-Feb-07 11:40 271 4 gusting 10 15.0
2016-Feb-07 11:35 360 5 gusting 9 14.4
2016-Feb-07 11:30 260 6 gusting 9 14.4
2016-Feb-07 11:25 289 4 gusting 9 14.4
2016-Feb-07 11:20 260 3 gusting 8 14.4
2016-Feb-07 11:15 276 4 gusting 7 14.4
2016-Feb-07 11:10 294 5 gusting 6 14.4
2016-Feb-07 11:05 300 3 gusting 6 14.4
2016-Feb-07 11:00 325 0 gusting 5 14.4
2016-Feb-07 10:55 293 1 gusting 6 13.9
2016-Feb-07 10:50 290 1 gusting 6 13.9
2016-Feb-07 10:45 329 2 gusting 5 13.9
2016-Feb-07 10:40 325 2 gusting 5 13.3
2016-Feb-07 10:35 321 2 gusting 13 12.8
2016-Feb-07 10:30 342 4 gusting 13 12.8
2016-Feb-07 10:25 360 4 gusting 9 13.3
2016-Feb-07 10:20 296 5 gusting 9 13.3
2016-Feb-07 10:15 313 6 gusting 9 13.9
2016-Feb-07 10:10 312 1 gusting 6 13.9
2016-Feb-07 10:05 304 3 gusting 7 13.3
2016-Feb-07 10:00 290 3 gusting 7 13.3
2016-Feb-07 09:55 281 1 gusting 6 13.3
2016-Feb-07 09:50 315 2 gusting 6 13.3
2016-Feb-07 09:45 309 1 gusting 6 13.3
2016-Feb-07 09:40 310 1 gusting 6 13.3
2016-Feb-07 09:35 299 3 gusting 9 13.3
2016-Feb-07 09:30 316 6 gusting 9 13.3
2016-Feb-07 09:25 313 5 gusting 7 13.3
2016-Feb-07 09:20 341 5 gusting 7 12.8
2016-Feb-07 09:15 319 4 gusting 7 12.8
2016-Feb-07 09:10 300 2 gusting 7 12.8
2016-Feb-07 09:05 342 3 gusting 7 12.8
2016-Feb-07 09:00 327 5 gusting 7 12.8
2016-Feb-07 08:55 334 4 gusting 7 12.8
2016-Feb-07 08:50 328 3 gusting 10 12.8
2016-Feb-07 08:40 338 6 gusting 12 12.8
2016-Feb-07 08:35 355 6 gusting 15 12.8
2016-Feb-07 08:30 325 6 gusting 15 12.8
2016-Feb-07 08:25 344 6 gusting 13 12.8
2016-Feb-07 08:20 300 6 gusting 13 12.8
2016-Feb-07 08:15 340 6 gusting 13 12.8
2016-Feb-07 08:10 312 6 gusting 11 12.8
2016-Feb-07 08:05 312 6 gusting 11 12.8
2016-Feb-07 08:00 306 6 gusting 12 12.8
2016-Feb-07 07:55 320 7 gusting 13 12.8
2016-Feb-07 07:50 310 7 gusting 13 12.2
2016-Feb-07 07:45 299 8 gusting 13 12.2
2016-Feb-07 07:40 328 7 gusting 12 12.2
2016-Feb-07 07:35 301 8 gusting 12 12.2
2016-Feb-07 07:30 321 6 gusting 11 12.2
2016-Feb-07 07:25 315 5 gusting 10 12.2
2016-Feb-07 07:20 303 6 gusting 13 12.2
2016-Feb-07 07:15 338 6 gusting 13 12.2
2016-Feb-07 07:10 334 8 gusting 13 12.8
2016-Feb-07 07:05 325 9 gusting 13 12.8
2016-Feb-07 07:00 360 8 gusting 13 12.2
2016-Feb-07 06:55 311 8 gusting 16 12.8
2016-Feb-07 06:50 315 8 gusting 16 12.8
2016-Feb-07 06:45 331 10 gusting 14 12.8
2016-Feb-07 06:40 313 9 gusting 16 12.8
2016-Feb-07 06:35 360 10 gusting 17 12.8
2016-Feb-07 06:30 308 11 gusting 17 12.8
2016-Feb-07 06:25 319 9 gusting 14 12.2
2016-Feb-07 06:20 315 6 gusting 16 12.8
2016-Feb-07 06:15 313 13 gusting 17 12.8
2016-Feb-07 06:10 295 11 gusting 17 12.8
2016-Feb-07 06:05 339 7 gusting 13 12.8
2016-Feb-07 06:00 296 10 gusting 18 12.8
2016-Feb-07 05:55 287 9 gusting 18 12.8
2016-Feb-07 05:50 360 7 gusting 16 12.8
2016-Feb-07 05:45 336 10 gusting 18 12.8
2016-Feb-07 05:40 331 12 gusting 18 12.8
2016-Feb-07 05:35 331 12 gusting 20 12.8
2016-Feb-07 05:30 294 11 gusting 20 12.8
2016-Feb-07 05:25 310 10 gusting 17 12.8
2016-Feb-07 05:20 309 11 gusting 18 12.8
2016-Feb-07 05:15 360 13 gusting 18 12.8
2016-Feb-07 05:10 305 10 gusting 18 12.8
2016-Feb-07 05:05 296 10 gusting 18 12.8
2016-Feb-07 05:00 328 7 gusting 14 12.8
2016-Feb-07 04:55 308 10 gusting 14 12.8
2016-Feb-07 04:50 296 10 gusting 13 12.8
2016-Feb-07 04:45 290 6 gusting 14 12.2
2016-Feb-07 04:40 298 9 gusting 14 12.8
2016-Feb-07 04:35 313 7 gusting 17 12.2
2016-Feb-07 04:30 310 12 gusting 17 12.8
2016-Feb-07 04:25 312 10 gusting 16 12.8
2016-Feb-07 04:20 308 9 gusting 16 12.8
2016-Feb-07 04:15 314 12 gusting 17 12.8
2016-Feb-07 04:10 288 13 gusting 18 12.8
2016-Feb-07 04:05 321 12 gusting 18 12.8
2016-Feb-07 04:00 323 9 gusting 17 12.8
2016-Feb-07 03:55 300 11 gusting 20 12.8
2016-Feb-07 03:50 275 12 gusting 20 12.8
2016-Feb-07 03:45 311 13 gusting 19 12.8
2016-Feb-07 03:40 292 13 gusting 17 12.8
2016-Feb-07 03:35 346 11 gusting 17 12.8
2016-Feb-07 03:30 304 8 gusting 13 12.8
2016-Feb-07 03:25 303 9 gusting 13 12.8
2016-Feb-07 03:20 312 7 gusting 14 12.8
2016-Feb-07 03:15 292 7 gusting 15 12.8
2016-Feb-07 03:10 311 10 gusting 15 12.8
2016-Feb-07 03:05 294 6 gusting 14 12.8
2016-Feb-07 03:00 307 7 gusting 13 12.8
2016-Feb-07 02:55 306 8 gusting 13 12.8
2016-Feb-07 02:50 309 7 gusting 16 12.8
2016-Feb-07 02:45 346 7 gusting 16 13.3
2016-Feb-07 02:40 330 9 gusting 17 13.3
2016-Feb-07 02:35 292 12 gusting 22 13.3
2016-Feb-07 02:30 301 12 gusting 22 13.3
2016-Feb-07 02:25 360 13 gusting 19 13.3
2016-Feb-07 02:20 294 7 gusting 19 13.3
2016-Feb-07 02:15 360 9 gusting 19 13.3
2016-Feb-07 02:10 294 8 gusting 18 12.8
2016-Feb-07 02:05 313 12 gusting 18 13.3
2016-Feb-07 02:00 296 6 gusting 17 13.3
2016-Feb-07 01:55 263 11 gusting 19 13.3
2016-Feb-07 01:50 297 12 gusting 19 13.3
2016-Feb-07 01:45 290 10 gusting 14 13.3
2016-Feb-07 01:40 337 9 gusting 16 12.8
2016-Feb-07 01:35 250 11 gusting 17 13.3
2016-Feb-07 01:30 288 9 gusting 17 12.8
2016-Feb-07 01:25 281 9 gusting 17 12.8
2016-Feb-07 01:20 268 8 gusting 18 12.8
2016-Feb-07 01:15 292 12 gusting 18 13.3
2016-Feb-07 01:10 302 10 gusting 18 13.3
2016-Feb-07 01:05 360 10 gusting 18 13.3
2016-Feb-07 01:00 317 11 gusting 20 13.3
2016-Feb-07 00:55 360 12 gusting 19 13.3
2016-Feb-07 00:50 360 11 gusting 18 13.3
2016-Feb-07 00:45 360 11 gusting 18 13.3
2016-Feb-07 00:40 299 9 gusting 19 13.3
2016-Feb-07 00:35 360 10 gusting 19 13.3
2016-Feb-07 00:30 278 6 gusting 19 13.3
2016-Feb-07 00:25 293 13 gusting 19 13.3
2016-Feb-07 00:20 360 9 gusting 19 13.3
2016-Feb-07 00:15 240 11 gusting 19 13.3
2016-Feb-07 00:10 360 11 gusting 19 13.3
2016-Feb-07 00:05 360 11 gusting 19 13.3
2016-Feb-07 00:00 273 12 gusting 19 13.3
2016-Feb-06 23:55 301 12 gusting 17 13.3
2016-Feb-06 23:50 360 7 gusting 17 13.3
2016-Feb-06 23:45 360 9 gusting 17 13.3
2016-Feb-06 23:40 360 11 gusting 18 12.8
2016-Feb-06 23:35 256 10 gusting 19 12.8
2016-Feb-06 23:30 264 7 gusting 15 12.8
2016-Feb-06 23:25 360 11 gusting 15 12.8
2016-Feb-06 23:20 360 11 gusting 14 12.8
2016-Feb-06 23:15 360 9 gusting 14 12.2
2016-Feb-06 23:10 274 8 gusting 12 12.2
2016-Feb-06 23:05 360 8 gusting 13 12.2
2016-Feb-06 23:00 316 10 gusting 16 12.2
2016-Feb-06 22:55 360 9 gusting 16 11.7
2016-Feb-06 22:50 360 9 gusting 16 11.7
2016-Feb-06 22:45 360 13 gusting 16 11.7
2016-Feb-06 22:40 360 8 gusting 16 11.7
2016-Feb-06 22:35 278 8 gusting 18 11.7
2016-Feb-06 22:30 360 9 gusting 18 11.7
2016-Feb-06 22:25 304 11 gusting 17 11.7
2016-Feb-06 22:20 317 9 gusting 19 12.2
2016-Feb-06 22:15 360 13 gusting 19 12.2
2016-Feb-06 22:10 360 8 gusting 19 11.7
2016-Feb-06 22:05 281 9 gusting 14 11.7
2016-Feb-06 22:00 360 9 gusting 13 11.7
2016-Feb-06 21:55 308 7 gusting 14 11.7
2016-Feb-06 21:50 330 7 gusting 14 11.7
2016-Feb-06 21:45 299 7 gusting 15 11.7
2016-Feb-06 21:40 304 9 gusting 22 11.7
2016-Feb-06 21:35 298 13 gusting 22 11.7
2016-Feb-06 21:30 341 10 gusting 19 11.7
2016-Feb-06 21:25 313 12 gusting 19 11.7
2016-Feb-06 21:20 318 13 gusting 20 12.2
2016-Feb-06 21:15 328 12 gusting 20 12.2
2016-Feb-06 21:10 340 8 gusting 19 12.2
2016-Feb-06 21:05 306 7 gusting 16 12.2
2016-Feb-06 21:00 360 8 gusting 19 12.2
2016-Feb-06 20:55 311 12 gusting 26 12.2
2016-Feb-06 20:50 294 18 gusting 26 13.9
2016-Feb-06 20:45 360 17 gusting 24 13.9
2016-Feb-06 20:40 360 17 gusting 24 13.9
2016-Feb-06 20:35 360 17 gusting 26 13.9
2016-Feb-06 20:30 360 17 gusting 25 13.9
2016-Feb-06 20:25 254 19 gusting 25 13.9
2016-Feb-06 20:20 252 16 gusting 26 13.3
2016-Feb-06 20:15 240 15 gusting 27 13.3
2016-Feb-06 20:10 251 19 gusting 30 13.3
2016-Feb-06 20:05 222 22 gusting 33 13.3
2016-Feb-06 20:00 360 23 gusting 34 13.3
2016-Feb-06 19:55 360 26 gusting 43 13.9
2016-Feb-06 19:50 360 26 gusting 43 13.9
2016-Feb-06 19:45 360 29 gusting 39 13.9
2016-Feb-06 19:40 360 22 gusting 36 13.9
2016-Feb-06 19:35 254 21 gusting 40 13.9
2016-Feb-06 19:30 248 27 gusting 40 13.9
2016-Feb-06 19:25 254 22 gusting 36 13.9
2016-Feb-06 19:20 229 25 gusting 33 13.9
2016-Feb-06 19:15 360 22 gusting 33 13.9
2016-Feb-06 19:10 231 23 gusting 33 13.9
2016-Feb-06 19:05 241 19 gusting 33 13.9
2016-Feb-06 19:00 360 20 gusting 33 13.9
2016-Feb-06 18:55 240 24 gusting 35 13.9
2016-Feb-06 18:50 360 23 gusting 34 13.9
2016-Feb-06 18:45 360 23 gusting 34 13.9
2016-Feb-06 18:40 360 21 gusting 34 13.9
2016-Feb-06 18:35 360 22 gusting 32 13.9
2016-Feb-06 18:30 360 21 gusting 28 13.9
2016-Feb-06 18:25 232 22 gusting 36 13.3
2016-Feb-06 18:20 360 26 gusting 36 13.9
2016-Feb-06 18:15 360 25 gusting 33 13.9
2016-Feb-06 18:10 360 20 gusting 28 13.9
2016-Feb-06 18:05 360 21 gusting 28 13.9
2016-Feb-06 18:00 215 19 gusting 28 13.9
2016-Feb-06 17:55 360 16 gusting 26 13.3
2016-Feb-06 17:50 360 19 gusting 26 13.3
2016-Feb-06 17:45 360 15 gusting 19 13.3
2016-Feb-06 17:40 360 14 gusting 26 13.3
2016-Feb-06 17:35 360 17 gusting 26 13.3
2016-Feb-06 17:30 360 19 gusting 28 13.3
2016-Feb-06 17:25 360 19 gusting 31 13.3
2016-Feb-06 17:20 360 19 gusting 28 13.9
2016-Feb-06 17:15 360 18 gusting 27 13.9
2016-Feb-06 17:10 360 17 gusting 29 13.9
2016-Feb-06 17:05 251 19 gusting 30 13.9
2016-Feb-06 17:00 360 21 gusting 28 13.9
2016-Feb-06 16:55 360 18 gusting 28 13.9
2016-Feb-06 16:50 360 21 gusting 28 14.4
2016-Feb-06 16:45 360 19 gusting 29 14.4
2016-Feb-06 16:40 360 19 gusting 35 14.4
2016-Feb-06 16:35 360 19 gusting 35 14.4
2016-Feb-06 16:30 225 23 gusting 29 15.0
2016-Feb-06 16:25 360 19 gusting 26 15.0
2016-Feb-06 16:20 360 15 gusting 26 15.0
2016-Feb-06 16:15 360 19 gusting 30 15.0
2016-Feb-06 16:10 360 21 gusting 30 15.0
2016-Feb-06 16:05 360 21 gusting 30 15.0
2016-Feb-06 16:00 360 19 gusting 28 15.0
2016-Feb-06 15:55 360 19 gusting 28 15.0
2016-Feb-06 15:50 360 17 gusting 27 15.0
2016-Feb-06 15:45 360 16 gusting 28 15.0
2016-Feb-06 15:40 360 20 gusting 30 15.0
2016-Feb-06 15:35 360 21 gusting 30 15.0
2016-Feb-06 15:30 360 17 gusting 28 15.0
2016-Feb-06 15:25 360 20 gusting 28 15.0
2016-Feb-06 15:20 360 18 gusting 27 15.0
2016-Feb-06 15:15 360 19 gusting 26 15.0
2016-Feb-06 15:10 360 17 gusting 32 15.0
2016-Feb-06 15:05 360 19 gusting 32 15.0
2016-Feb-06 15:00 360 21 gusting 27 15.0
2016-Feb-06 14:55 360 16 gusting 24 15.0
2016-Feb-06 14:50 360 18 gusting 26 15.0
2016-Feb-06 14:45 360 18 gusting 26 15.0
2016-Feb-06 14:40 360 19 gusting 29 15.0
2016-Feb-06 14:35 360 21 gusting 29 15.0
2016-Feb-06 14:30 360 21 gusting 29 15.0
2016-Feb-06 14:25 360 16 gusting 26 15.0
2016-Feb-06 14:20 360 13 gusting 23 15.0
2016-Feb-06 14:15 230 17 gusting 23 15.0
2016-Feb-06 14:10 240 16 gusting 23 15.0
2016-Feb-06 14:05 360 17 gusting 22 15.0
2016-Feb-06 14:00 360 15 gusting 26 15.0
2016-Feb-06 13:55 227 19 gusting 26 15.0
2016-Feb-06 13:50 360 16 gusting 25 15.0
2016-Feb-06 13:45 360 19 gusting 25 15.0
2016-Feb-06 13:40 360 19 gusting 28 15.0
2016-Feb-06 13:35 360 17 gusting 28 15.0
2016-Feb-06 13:30 360 21 gusting 24 15.0
2016-Feb-06 13:25 360 15 gusting 30 15.0
2016-Feb-06 13:20 360 22 gusting 30 15.0
2016-Feb-06 13:15 360 15 gusting 29 15.6
2016-Feb-06 13:10 360 17 gusting 26 15.0
2016-Feb-06 13:05 360 19 gusting 26 15.0
2016-Feb-06 13:00 360 13 gusting 26 15.0
2016-Feb-06 12:55 360 19 gusting 26 15.0
2016-Feb-06 12:50 360 14 gusting 24 15.0
2016-Feb-06 12:45 360 15 gusting 25 15.6
2016-Feb-06 12:40 360 19 gusting 22 15.6
2016-Feb-06 12:35 360 16 gusting 24 15.0
2016-Feb-06 12:30 360 19 gusting 24 15.0
2016-Feb-06 12:25 360 12 gusting 22 15.6
2016-Feb-06 12:20 360 14 gusting 19 15.6
2016-Feb-06 12:15 360 14 gusting 19 15.0
2016-Feb-06 12:10 360 12 gusting 20 15.0
2016-Feb-06 12:05 360 13 gusting 20 14.4
2016-Feb-06 12:00 360 13 gusting 19 14.4
2016-Feb-06 11:55 360 12 gusting 20 14.4
2016-Feb-06 11:50 360 13 gusting 22 14.4
2016-Feb-06 11:45 360 14 gusting 21 14.4
2016-Feb-06 11:40 360 11 gusting 19 14.4
2016-Feb-06 11:35 360 13 gusting 19 14.4
2016-Feb-06 11:30 360 13 gusting 19 15.0
2016-Feb-06 11:25 360 11 gusting 19 15.0
2016-Feb-06 11:20 360 14 gusting 19 15.0
2016-Feb-06 11:15 360 11 gusting 16 14.4
2016-Feb-06 11:10 360 11 gusting 16 14.4
2016-Feb-06 11:05 360 11 gusting 15 13.9
2016-Feb-06 11:00 360 12 gusting 15 13.9
2016-Feb-06 10:55 360 10 gusting 14 13.9
2016-Feb-06 10:50 360 9 gusting 15 13.9
2016-Feb-06 10:45 360 11 gusting 15 13.9
2016-Feb-06 10:40 360 6 gusting 13 13.9
2016-Feb-06 10:35 360 6 gusting 13 13.9
2016-Feb-06 10:30 360 7 gusting 13 13.9
2016-Feb-06 10:25 240 5 gusting 7 13.9
2016-Feb-06 10:20 246 3 gusting 7 13.9
2016-Feb-06 10:15 251 1 gusting 6 13.9
2016-Feb-06 10:10 229 4 gusting 6 13.3
2016-Feb-06 10:05 232 5 gusting 6 13.3
2016-Feb-06 10:00 204 6 gusting 6 13.3
2016-Feb-06 09:55 211 5 gusting 6 13.3
2016-Feb-06 09:50 225 5 gusting 7 13.3
2016-Feb-06 09:45 197 5 gusting 7 13.3
2016-Feb-06 09:40 205 4 gusting 6 12.8
2016-Feb-06 09:35 221 6 gusting 6 12.8
2016-Feb-06 09:30 238 4 gusting 6 12.8
2016-Feb-06 09:25 252 5 gusting 6 12.2
2016-Feb-06 09:20 229 2 gusting 5 12.2
2016-Feb-06 09:15 227 3 gusting 6 12.2
2016-Feb-06 09:10 215 3 gusting 6 11.7
2016-Feb-06 09:05 206 3 gusting 5 11.7
2016-Feb-06 09:00 200 3 gusting 5 11.1
2016-Feb-06 08:55 157 0 gusting 2 10.6
2016-Feb-06 08:50 155 10.0
2016-Feb-06 08:45 200 10.0
2016-Feb-06 08:40 192 10.0
2016-Feb-06 08:35 189 10.0
2016-Feb-06 08:30 192 10.0
2016-Feb-06 08:25 195 10.6
2016-Feb-06 08:20 201 10.6
2016-Feb-06 08:15 200 10.6
2016-Feb-06 08:10 200 10.6
2016-Feb-06 08:05 197 10.6
2016-Feb-06 08:00 197 10.0
2016-Feb-06 07:55 194 10.0
2016-Feb-06 07:50 194 10.0
2016-Feb-06 07:45 194 10.0
2016-Feb-06 07:40 195 10.6
2016-Feb-06 07:35 195 11.1
2016-Feb-06 07:30 184 11.1
2016-Feb-06 07:25 186 11.1
2016-Feb-06 07:20 186 1 gusting 5 10.6
2016-Feb-06 07:15 149 10.6
2016-Feb-06 07:10 140 10.6
2016-Feb-06 07:05 140 10.0
2016-Feb-06 07:00 140 10.6
2016-Feb-06 06:55 140 10.6
2016-Feb-06 06:50 134 0 gusting 2 10.0
2016-Feb-06 06:45 132 10.0
2016-Feb-06 06:40 132 10.0
2016-Feb-06 06:35 132 9.4
2016-Feb-06 06:30 132 9.4
2016-Feb-06 06:25 132 9.4
2016-Feb-06 06:20 132 8.9
2016-Feb-06 06:15 132 8.9
2016-Feb-06 06:10 132 8.9
2016-Feb-06 06:05 132 8.9
2016-Feb-06 06:00 132 8.9
2016-Feb-06 05:55 132 8.9
2016-Feb-06 05:50 132 8.9
2016-Feb-06 05:45 132 8.9
2016-Feb-06 05:40 132 8.9
2016-Feb-06 05:35 132 8.3
2016-Feb-06 05:30 132 8.3
2016-Feb-06 05:25 132 8.3
2016-Feb-06 05:20 132 8.3
2016-Feb-06 05:15 132 8.3
2016-Feb-06 05:10 132 8.3
2016-Feb-06 05:05 132 8.9
2016-Feb-06 05:00 132 0 gusting 2 8.9
2016-Feb-06 04:55 134 8.9
2016-Feb-06 04:50 134 8.9
2016-Feb-06 04:45 135 0 gusting 2 8.9
2016-Feb-06 04:40 136 8.3
2016-Feb-06 04:35 136 8.3
2016-Feb-06 04:30 136 8.3
2016-Feb-06 04:25 136 8.3
2016-Feb-06 04:20 136 8.3
2016-Feb-06 04:15 136 8.3
2016-Feb-06 04:10 136 8.3
2016-Feb-06 04:05 136 8.3
2016-Feb-06 04:00 136 8.3
2016-Feb-06 03:55 137 8.3
2016-Feb-06 03:50 137 8.3
2016-Feb-06 03:45 137 8.3
2016-Feb-06 03:40 137 8.9
2016-Feb-06 03:35 137 8.9
2016-Feb-06 03:30 138 8.9
2016-Feb-06 03:25 138 8.9
2016-Feb-06 03:20 138 8.9
2016-Feb-06 03:15 138 8.9
2016-Feb-06 03:10 138 8.9
2016-Feb-06 03:05 138 8.9
2016-Feb-06 03:00 138 8.9
2016-Feb-06 02:55 138 8.9
2016-Feb-06 02:50 138 8.9
2016-Feb-06 02:45 138 8.9
2016-Feb-06 02:40 139 8.9
2016-Feb-06 02:35 138 8.9
2016-Feb-06 02:30 139 8.9
2016-Feb-06 02:25 140 9.4
2016-Feb-06 02:20 140 9.4
2016-Feb-06 02:15 140 9.4
2016-Feb-06 02:10 140 8.9
2016-Feb-06 02:05 142 8.9
2016-Feb-06 02:00 142 8.3